owner,sensor,date,latitude,longitude,vertical_datum,sea_water_temperature,qcFlag 
DISL,ioos:station:DISL:MBLA:1,2015-06-01T00:02:00Z,30.4367,-88.0117,0.5,27.97,2 
DISL,ioos:station:DISL:MBLA:1,2015-06-01T00:05:00Z,30.4367,-88.0117,0.5,28.7,2 
DISL,ioos:station:DISL:MBLA:1,2015-06-01T00:07:00Z,30.4367,-88.0117,0.5,28.81,2 
DISL,ioos:station:DISL:MBLA:1,2015-06-01T00:10:00Z,30.4367,-88.0117,0.5,28.83,2 
DISL,ioos:station:DISL:MBLA:1,2015-06-01T00:12:00Z,30.4367,-88.0117,0.5,28.83,2 
DISL,ioos:station:DISL:MBLA:1,2015-06-01T00:15:00Z,30.4367,-88.0117,0.5,28.82,2 
DISL,ioos:station:DISL:MBLA:1,2015-06-01T01:02:00Z,30.4367,-88.0117,0.5,27.78,2 
DISL,ioos:station:DISL:MBLA:1,2015-06-01T01:05:00Z,30.4367,-88.0117,0.5,28.19,2 
DISL,ioos:station:DISL:MBLA:1,2015-06-01T01:08:00Z,30.4367,-88.0117,0.5,28.47,2 
DISL,ioos:station:DISL:MBLA:1,2015-06-01T01:10:00Z,30.4367,-88.0117,0.5,28.63,2 
DISL,ioos:station:DISL:MBLA:1,2015-06-01T01:13:00Z,30.4367,-88.0117,0.5,28.63,2 
DISL,ioos:station:DISL:MBLA:1,2015-06-01T01:15:00Z,30.4367,-88.0117,0.5,28.57,2 
DISL,ioos:station:DISL:MBLA:1,2015-06-01T02:02:00Z,30.4367,-88.0117,0.5,27.56,2 
DISL,ioos:station:DISL:MBLA:1,2015-06-01T02:05:00Z,30.4367,-88.0117,0.5,28.16,2 
DISL,ioos:station:DISL:MBLA:1,2015-06-01T02:07:00Z,30.4367,-88.0117,0.5,28.5,2 
DISL,ioos:station:DISL:MBLA:1,2015-06-01T02:10:00Z,30.4367,-88.0117,0.5,28.54,2 
DISL,ioos:station:DISL:MBLA:1,2015-06-01T02:12:00Z,30.4367,-88.0117,0.5,28.56,2 
DISL,ioos:station:DISL:MBLA:1,2015-06-01T02:15:00Z,30.4367,-88.0117,0.5,28.53,2 
DISL,ioos:station:DISL:MBLA:1,2015-06-01T03:27:00Z,30.4367,-88.0117,0.5,27.85,2 
DISL,ioos:station:DISL:MBLA:1,2015-06-01T03:30:00Z,30.4367,-88.0117,0.5,28.35,2 
DISL,ioos:station:DISL:MBLA:1,2015-06-01T04:02:00Z,30.4367,-88.0117,0.5,27.92,2 
DISL,ioos:station:DISL:MBLA:1,2015-06-01T04:05:00Z,30.4367,-88.0117,0.5,28.16,2 
DISL,ioos:station:DISL:MBLA:1,2015-06-01T04:07:00Z,30.4367,-88.0117,0.5,28.29,2 
DISL,ioos:station:DISL:MBLA:1,2015-06-01T04:10:00Z,30.4367,-88.0117,0.5,28.27,2 
DISL,ioos:station:DISL:MBLA:1,2015-06-01T04:12:00Z,30.4367,-88.0117,0.5,28.26,2 
DISL,ioos:station:DISL:MBLA:1,2015-06-01T04:14:00Z,30.4367,-88.0117,0.5,28.24,2 
DISL,ioos:station:DISL:MBLA:1,2015-06-01T05:02:00Z,30.4367,-88.0117,0.5,27.93,2 
DISL,ioos:station:DISL:MBLA:1,2015-06-01T05:05:00Z,30.4367,-88.0117,0.5,28.33,2 
DISL,ioos:station:DISL:MBLA:1,2015-06-01T05:07:00Z,30.4367,-88.0117,0.5,28.58,2 
DISL,ioos:station:DISL:MBLA:1,2015-06-01T05:10:00Z,30.4367,-88.0117,0.5,28.39,2 
DISL,ioos:station:DISL:MBLA:1,2015-06-01T05:12:00Z,30.4367,-88.0117,0.5,28.29,2 
DISL,ioos:station:DISL:MBLA:1,2015-06-01T05:15:00Z,30.4367,-88.0117,0.5,28.24,2 
DISL,ioos:station:DISL:MBLA:1,2015-06-01T06:27:00Z,30.4367,-88.0117,0.5,28.58,2 
DISL,ioos:station:DISL:MBLA:1,2015-06-01T06:30:00Z,30.4367,-88.0117,0.5,28.03,2 
DISL,ioos:station:DISL:MBLA:1,2015-06-01T07:02:00Z,30.4367,-88.0117,0.5,28.62,2 
DISL,ioos:station:DISL:MBLA:1,2015-06-01T07:07:00Z,30.4367,-88.0117,0.5,28.65,2 
DISL,ioos:station:DISL:MBLA:1,2015-06-01T07:10:00Z,30.4367,-88.0117,0.5,28.11,2 
DISL,ioos:station:DISL:MBLA:1,2015-06-01T07:12:00Z,30.4367,-88.0117,0.5,28.05,2 
DISL,ioos:station:DISL:MBLA:1,2015-06-01T07:14:00Z,30.4367,-88.0117,0.5,27.92,2 
DISL,ioos:station:DISL:MBLA:1,2015-06-01T08:02:00Z,30.4367,-88.0117,0.5,28.51,2 
DISL,ioos:station:DISL:MBLA:1,2015-06-01T08:05:00Z,30.4367,-88.0117,0.5,28.71,2 
DISL,ioos:station:DISL:MBLA:1,2015-06-01T08:07:00Z,30.4367,-88.0117,0.5,28.62,2 
DISL,ioos:station:DISL:MBLA:1,2015-06-01T08:10:00Z,30.4367,-88.0117,0.5,28.27,2 
DISL,ioos:station:DISL:MBLA:1,2015-06-01T08:12:00Z,30.4367,-88.0117,0.5,27.84,2 
DISL,ioos:station:DISL:MBLA:1,2015-06-01T08:15:00Z,30.4367,-88.0117,0.5,27.82,2 
DISL,ioos:station:DISL:MBLA:1,2015-06-01T09:02:00Z,30.4367,-88.0117,0.5,28.27,2 
DISL,ioos:station:DISL:MBLA:1,2015-06-01T09:05:00Z,30.4367,-88.0117,0.5,28.37,2 
DISL,ioos:station:DISL:MBLA:1,2015-06-01T09:07:00Z,30.4367,-88.0117,0.5,28.17,2 
DISL,ioos:station:DISL:MBLA:1,2015-06-01T09:10:00Z,30.4367,-88.0117,0.5,27.94,2 
DISL,ioos:station:DISL:MBLA:1,2015-06-01T09:12:00Z,30.4367,-88.0117,0.5,27.82,2 
DISL,ioos:station:DISL:MBLA:1,2015-06-01T09:14:00Z,30.4367,-88.0117,0.5,27.8,2 
DISL,ioos:station:DISL:MBLA:1,2015-06-01T10:02:00Z,30.4367,-88.0117,0.5,28.43,2 
DISL,ioos:station:DISL:MBLA:1,2015-06-01T10:05:00Z,30.4367,-88.0117,0.5,28.42,2 
DISL,ioos:station:DISL:MBLA:1,2015-06-01T10:07:00Z,30.4367,-88.0117,0.5,28.31,2 
DISL,ioos:station:DISL:MBLA:1,2015-06-01T10:10:00Z,30.4367,-88.0117,0.5,27.85,2 
DISL,ioos:station:DISL:MBLA:1,2015-06-01T10:13:00Z,30.4367,-88.0117,0.5,27.8,2 
DISL,ioos:station:DISL:MBLA:1,2015-06-01T10:15:00Z,30.4367,-88.0117,0.5,27.75,2 
DISL,ioos:station:DISL:MBLA:1,2015-06-01T11:02:00Z,30.4367,-88.0117,0.5,28.2,2 
DISL,ioos:station:DISL:MBLA:1,2015-06-01T11:05:00Z,30.4367,-88.0117,0.5,28.29,2 
DISL,ioos:station:DISL:MBLA:1,2015-06-01T11:07:00Z,30.4367,-88.0117,0.5,28.05,2 
DISL,ioos:station:DISL:MBLA:1,2015-06-01T11:10:00Z,30.4367,-88.0117,0.5,27.73,2 
DISL,ioos:station:DISL:MBLA:1,2015-06-01T11:12:00Z,30.4367,-88.0117,0.5,27.7,2 
DISL,ioos:station:DISL:MBLA:1,2015-06-01T11:15:00Z,30.4367,-88.0117,0.5,27.69,2 
DISL,ioos:station:DISL:MBLA:1,2015-06-01T12:02:00Z,30.4367,-88.0117,0.5,28.13,2 
DISL,ioos:station:DISL:MBLA:1,2015-06-01T12:05:00Z,30.4367,-88.0117,0.5,28.01,2 
DISL,ioos:station:DISL:MBLA:1,2015-06-01T12:07:00Z,30.4367,-88.0117,0.5,27.71,2 
DISL,ioos:station:DISL:MBLA:1,2015-06-01T12:10:00Z,30.4367,-88.0117,0.5,27.63,2 
DISL,ioos:station:DISL:MBLA:1,2015-06-01T12:12:00Z,30.4367,-88.0117,0.5,27.6,2 
DISL,ioos:station:DISL:MBLA:1,2015-06-01T12:14:00Z,30.4367,-88.0117,0.5,27.56,2 
DISL,ioos:station:DISL:MBLA:1,2015-06-01T13:02:00Z,30.4367,-88.0117,0.5,27.96,2 
DISL,ioos:station:DISL:MBLA:1,2015-06-01T13:05:00Z,30.4367,-88.0117,0.5,27.8,2 
DISL,ioos:station:DISL:MBLA:1,2015-06-01T13:07:00Z,30.4367,-88.0117,0.5,27.65,2 
DISL,ioos:station:DISL:MBLA:1,2015-06-01T13:10:00Z,30.4367,-88.0117,0.5,27.58,2 
DISL,ioos:station:DISL:MBLA:1,2015-06-01T13:13:00Z,30.4367,-88.0117,0.5,27.51,2 
DISL,ioos:station:DISL:MBLA:1,2015-06-01T13:15:00Z,30.4367,-88.0117,0.5,27.53,2 
DISL,ioos:station:DISL:MBLA:1,2015-06-01T14:02:00Z,30.4367,-88.0117,0.5,27.99,2 
DISL,ioos:station:DISL:MBLA:1,2015-06-01T14:05:00Z,30.4367,-88.0117,0.5,27.86,2 
DISL,ioos:station:DISL:MBLA:1,2015-06-01T14:08:00Z,30.4367,-88.0117,0.5,27.6,2 
DISL,ioos:station:DISL:MBLA:1,2015-06-01T14:10:00Z,30.4367,-88.0117,0.5,27.53,2 
DISL,ioos:station:DISL:MBLA:1,2015-06-01T14:13:00Z,30.4367,-88.0117,0.5,27.53,2 
DISL,ioos:station:DISL:MBLA:1,2015-06-01T14:15:00Z,30.4367,-88.0117,0.5,27.53,2 
DISL,ioos:station:DISL:MBLA:1,2015-06-01T15:03:00Z,30.4367,-88.0117,0.5,27.87,2 
DISL,ioos:station:DISL:MBLA:1,2015-06-01T15:05:00Z,30.4367,-88.0117,0.5,27.77,2 
DISL,ioos:station:DISL:MBLA:1,2015-06-01T15:08:00Z,30.4367,-88.0117,0.5,27.61,2 
DISL,ioos:station:DISL:MBLA:1,2015-06-01T15:10:00Z,30.4367,-88.0117,0.5,27.55,2 
DISL,ioos:station:DISL:MBLA:1,2015-06-01T15:13:00Z,30.4367,-88.0117,0.5,27.56,2 
DISL,ioos:station:DISL:MBLA:1,2015-06-01T15:15:00Z,30.4367,-88.0117,0.5,27.61,2 
DISL,ioos:station:DISL:MBLA:1,2015-06-01T16:03:00Z,30.4367,-88.0117,0.5,27.87,2 
DISL,ioos:station:DISL:MBLA:1,2015-06-01T16:05:00Z,30.4367,-88.0117,0.5,27.85,2 
DISL,ioos:station:DISL:MBLA:1,2015-06-01T16:08:00Z,30.4367,-88.0117,0.5,27.77,2 
DISL,ioos:station:DISL:MBLA:1,2015-06-01T16:10:00Z,30.4367,-88.0117,0.5,27.69,2 
DISL,ioos:station:DISL:MBLA:1,2015-06-01T16:13:00Z,30.4367,-88.0117,0.5,27.75,2 
DISL,ioos:station:DISL:MBLA:1,2015-06-01T16:15:00Z,30.4367,-88.0117,0.5,27.92,2 
DISL,ioos:station:DISL:MBLA:1,2015-06-01T17:03:00Z,30.4367,-88.0117,0.5,27.95,2 
DISL,ioos:station:DISL:MBLA:1,2015-06-01T17:08:00Z,30.4367,-88.0117,0.5,27.85,2 
DISL,ioos:station:DISL:MBLA:1,2015-06-01T17:10:00Z,30.4367,-88.0117,0.5,27.84,2 
DISL,ioos:station:DISL:MBLA:1,2015-06-01T17:13:00Z,30.4367,-88.0117,0.5,28.23,2 
DISL,ioos:station:DISL:MBLA:1,2015-06-01T17:15:00Z,30.4367,-88.0117,0.5,28.67,2 
DISL,ioos:station:DISL:MBLA:1,2015-06-01T18:02:00Z,30.4367,-88.0117,0.5,27.96,2 
DISL,ioos:station:DISL:MBLA:1,2015-06-01T18:05:00Z,30.4367,-88.0117,0.5,27.96,2 
DISL,ioos:station:DISL:MBLA:1,2015-06-01T18:08:00Z,30.4367,-88.0117,0.5,27.9,2 
DISL,ioos:station:DISL:MBLA:1,2015-06-01T18:10:00Z,30.4367,-88.0117,0.5,27.86,2 
DISL,ioos:station:DISL:MBLA:1,2015-06-01T18:13:00Z,30.4367,-88.0117,0.5,27.89,2 
DISL,ioos:station:DISL:MBLA:1,2015-06-01T18:15:00Z,30.4367,-88.0117,0.5,28.14,2 
DISL,ioos:station:DISL:MBLA:1,2015-06-01T19:02:00Z,30.4367,-88.0117,0.5,27.92,2 
DISL,ioos:station:DISL:MBLA:1,2015-06-01T19:05:00Z,30.4367,-88.0117,0.5,27.96,2 
DISL,ioos:station:DISL:MBLA:1,2015-06-01T19:08:00Z,30.4367,-88.0117,0.5,28.05,2 
DISL,ioos:station:DISL:MBLA:1,2015-06-01T19:10:00Z,30.4367,-88.0117,0.5,28.14,2 
DISL,ioos:station:DISL:MBLA:1,2015-06-01T19:13:00Z,30.4367,-88.0117,0.5,28.24,2 
DISL,ioos:station:DISL:MBLA:1,2015-06-01T19:15:00Z,30.4367,-88.0117,0.5,28.55,2 
DISL,ioos:station:DISL:MBLA:1,2015-06-01T20:02:00Z,30.4367,-88.0117,0.5,27.79,2 
DISL,ioos:station:DISL:MBLA:1,2015-06-01T20:05:00Z,30.4367,-88.0117,0.5,27.99,2 
DISL,ioos:station:DISL:MBLA:1,2015-06-01T20:08:00Z,30.4367,-88.0117,0.5,28.05,2 
DISL,ioos:station:DISL:MBLA:1,2015-06-01T20:10:00Z,30.4367,-88.0117,0.5,28.08,2 
DISL,ioos:station:DISL:MBLA:1,2015-06-01T20:13:00Z,30.4367,-88.0117,0.5,28.43,2 
DISL,ioos:station:DISL:MBLA:1,2015-06-01T20:15:00Z,30.4367,-88.0117,0.5,28.73,2 
DISL,ioos:station:DISL:MBLA:1,2015-06-01T21:02:00Z,30.4367,-88.0117,0.5,27.77,2 
DISL,ioos:station:DISL:MBLA:1,2015-06-01T21:05:00Z,30.4367,-88.0117,0.5,27.91,2 
DISL,ioos:station:DISL:MBLA:1,2015-06-01T21:07:00Z,30.4367,-88.0117,0.5,28.05,2 
DISL,ioos:station:DISL:MBLA:1,2015-06-01T21:10:00Z,30.4367,-88.0117,0.5,28.4,2 
DISL,ioos:station:DISL:MBLA:1,2015-06-01T21:13:00Z,30.4367,-88.0117,0.5,28.5,2 
DISL,ioos:station:DISL:MBLA:1,2015-06-01T21:15:00Z,30.4367,-88.0117,0.5,28.66,2 
DISL,ioos:station:DISL:MBLA:1,2015-06-01T22:03:00Z,30.4367,-88.0117,0.5,27.63,2 
DISL,ioos:station:DISL:MBLA:1,2015-06-01T22:05:00Z,30.4367,-88.0117,0.5,28.31,2 
DISL,ioos:station:DISL:MBLA:1,2015-06-01T22:08:00Z,30.4367,-88.0117,0.5,28.59,2 
DISL,ioos:station:DISL:MBLA:1,2015-06-01T22:10:00Z,30.4367,-88.0117,0.5,28.67,2 
DISL,ioos:station:DISL:MBLA:1,2015-06-01T22:13:00Z,30.4367,-88.0117,0.5,28.68,2 
DISL,ioos:station:DISL:MBLA:1,2015-06-01T22:15:00Z,30.4367,-88.0117,0.5,28.7,2 
DISL,ioos:station:DISL:MBLA:1,2015-06-01T23:03:00Z,30.4367,-88.0117,0.5,27.62,2 
DISL,ioos:station:DISL:MBLA:1,2015-06-01T23:05:00Z,30.4367,-88.0117,0.5,28.22,2 
DISL,ioos:station:DISL:MBLA:1,2015-06-01T23:07:00Z,30.4367,-88.0117,0.5,28.5,2 
DISL,ioos:station:DISL:MBLA:1,2015-06-01T23:10:00Z,30.4367,-88.0117,0.5,28.58,2 
DISL,ioos:station:DISL:MBLA:1,2015-06-01T23:13:00Z,30.4367,-88.0117,0.5,28.7,2 
DISL,ioos:station:DISL:MBLA:1,2015-06-01T23:15:00Z,30.4367,-88.0117,0.5,28.83,2 
DISL,ioos:station:DISL:MBLA:1,2015-06-02T00:02:00Z,30.4367,-88.0117,0.5,27.91,2 
DISL,ioos:station:DISL:MBLA:1,2015-06-02T00:05:00Z,30.4367,-88.0117,0.5,28.47,2 
DISL,ioos:station:DISL:MBLA:1,2015-06-02T00:07:00Z,30.4367,-88.0117,0.5,28.77,2 
DISL,ioos:station:DISL:MBLA:1,2015-06-02T00:10:00Z,30.4367,-88.0117,0.5,28.81,2 
DISL,ioos:station:DISL:MBLA:1,2015-06-02T00:12:00Z,30.4367,-88.0117,0.5,28.84,2 
DISL,ioos:station:DISL:MBLA:1,2015-06-02T00:15:00Z,30.4367,-88.0117,0.5,28.86,2 
DISL,ioos:station:DISL:MBLA:1,2015-06-02T01:02:00Z,30.4367,-88.0117,0.5,27.86,2 
DISL,ioos:station:DISL:MBLA:1,2015-06-02T01:05:00Z,30.4367,-88.0117,0.5,28.25,2 
DISL,ioos:station:DISL:MBLA:1,2015-06-02T01:07:00Z,30.4367,-88.0117,0.5,28.48,2 
DISL,ioos:station:DISL:MBLA:1,2015-06-02T01:10:00Z,30.4367,-88.0117,0.5,28.32,2 
DISL,ioos:station:DISL:MBLA:1,2015-06-02T01:12:00Z,30.4367,-88.0117,0.5,28.16,2 
DISL,ioos:station:DISL:MBLA:1,2015-06-02T01:15:00Z,30.4367,-88.0117,0.5,28.09,2 
DISL,ioos:station:DISL:MBLA:1,2015-06-02T02:02:00Z,30.4367,-88.0117,0.5,27.62,2 
DISL,ioos:station:DISL:MBLA:1,2015-06-02T02:05:00Z,30.4367,-88.0117,0.5,27.76,2 
DISL,ioos:station:DISL:MBLA:1,2015-06-02T02:07:00Z,30.4367,-88.0117,0.5,27.99,2 
DISL,ioos:station:DISL:MBLA:1,2015-06-02T02:10:00Z,30.4367,-88.0117,0.5,28.14,2 
DISL,ioos:station:DISL:MBLA:1,2015-06-02T02:12:00Z,30.4367,-88.0117,0.5,28.16,2 
DISL,ioos:station:DISL:MBLA:1,2015-06-02T02:15:00Z,30.4367,-88.0117,0.5,28.14,2 
DISL,ioos:station:DISL:MBLA:1,2015-06-02T03:02:00Z,30.4367,-88.0117,0.5,27.55,2 
DISL,ioos:station:DISL:MBLA:1,2015-06-02T03:07:00Z,30.4367,-88.0117,0.5,27.77,2 
DISL,ioos:station:DISL:MBLA:1,2015-06-02T03:10:00Z,30.4367,-88.0117,0.5,27.83,2 
DISL,ioos:station:DISL:MBLA:1,2015-06-02T03:12:00Z,30.4367,-88.0117,0.5,27.85,2 
DISL,ioos:station:DISL:MBLA:1,2015-06-02T03:15:00Z,30.4367,-88.0117,0.5,27.85,2 
DISL,ioos:station:DISL:MBLA:1,2015-06-02T04:02:00Z,30.4367,-88.0117,0.5,27.56,2 
DISL,ioos:station:DISL:MBLA:1,2015-06-02T04:05:00Z,30.4367,-88.0117,0.5,27.83,2 
DISL,ioos:station:DISL:MBLA:1,2015-06-02T04:07:00Z,30.4367,-88.0117,0.5,27.81,2 
DISL,ioos:station:DISL:MBLA:1,2015-06-02T04:10:00Z,30.4367,-88.0117,0.5,27.77,2 
DISL,ioos:station:DISL:MBLA:1,2015-06-02T04:12:00Z,30.4367,-88.0117,0.5,27.74,2 
DISL,ioos:station:DISL:MBLA:1,2015-06-02T04:14:00Z,30.4367,-88.0117,0.5,27.73,2 
DISL,ioos:station:DISL:MBLA:1,2015-06-02T05:02:00Z,30.4367,-88.0117,0.5,27.6,2 
DISL,ioos:station:DISL:MBLA:1,2015-06-02T05:05:00Z,30.4367,-88.0117,0.5,27.88,2 
DISL,ioos:station:DISL:MBLA:1,2015-06-02T05:07:00Z,30.4367,-88.0117,0.5,27.81,2 
DISL,ioos:station:DISL:MBLA:1,2015-06-02T05:10:00Z,30.4367,-88.0117,0.5,27.75,2 
DISL,ioos:station:DISL:MBLA:1,2015-06-02T05:12:00Z,30.4367,-88.0117,0.5,27.68,2 
DISL,ioos:station:DISL:MBLA:1,2015-06-02T05:15:00Z,30.4367,-88.0117,0.5,27.69,2 
DISL,ioos:station:DISL:MBLA:1,2015-06-02T06:02:00Z,30.4367,-88.0117,0.5,27.69,2 
DISL,ioos:station:DISL:MBLA:1,2015-06-02T06:05:00Z,30.4367,-88.0117,0.5,27.79,2 
DISL,ioos:station:DISL:MBLA:1,2015-06-02T06:07:00Z,30.4367,-88.0117,0.5,27.72,2 
DISL,ioos:station:DISL:MBLA:1,2015-06-02T06:10:00Z,30.4367,-88.0117,0.5,27.67,2 
DISL,ioos:station:DISL:MBLA:1,2015-06-02T06:12:00Z,30.4367,-88.0117,0.5,27.66,2 
DISL,ioos:station:DISL:MBLA:1,2015-06-02T06:14:00Z,30.4367,-88.0117,0.5,27.65,2 
DISL,ioos:station:DISL:MBLA:1,2015-06-02T07:02:00Z,30.4367,-88.0117,0.5,27.78,2 
DISL,ioos:station:DISL:MBLA:1,2015-06-02T07:07:00Z,30.4367,-88.0117,0.5,27.75,2 
DISL,ioos:station:DISL:MBLA:1,2015-06-02T07:10:00Z,30.4367,-88.0117,0.5,27.7,2 
DISL,ioos:station:DISL:MBLA:1,2015-06-02T07:12:00Z,30.4367,-88.0117,0.5,27.69,2 
DISL,ioos:station:DISL:MBLA:1,2015-06-02T07:15:00Z,30.4367,-88.0117,0.5,27.68,2 
DISL,ioos:station:DISL:MBLA:1,2015-06-02T08:02:00Z,30.4367,-88.0117,0.5,27.84,2 
DISL,ioos:station:DISL:MBLA:1,2015-06-02T08:05:00Z,30.4367,-88.0117,0.5,27.8,2 
DISL,ioos:station:DISL:MBLA:1,2015-06-02T08:07:00Z,30.4367,-88.0117,0.5,27.77,2 
DISL,ioos:station:DISL:MBLA:1,2015-06-02T08:10:00Z,30.4367,-88.0117,0.5,27.78,2 
DISL,ioos:station:DISL:MBLA:1,2015-06-02T08:12:00Z,30.4367,-88.0117,0.5,27.79,2 
DISL,ioos:station:DISL:MBLA:1,2015-06-02T08:15:00Z,30.4367,-88.0117,0.5,27.8,2 
DISL,ioos:station:DISL:MBLA:1,2015-06-02T09:02:00Z,30.4367,-88.0117,0.5,28.14,2 
DISL,ioos:station:DISL:MBLA:1,2015-06-02T09:05:00Z,30.4367,-88.0117,0.5,28.06,2 
DISL,ioos:station:DISL:MBLA:1,2015-06-02T09:07:00Z,30.4367,-88.0117,0.5,28.09,2 
DISL,ioos:station:DISL:MBLA:1,2015-06-02T09:10:00Z,30.4367,-88.0117,0.5,28.03,2 
DISL,ioos:station:DISL:MBLA:1,2015-06-02T09:12:00Z,30.4367,-88.0117,0.5,27.85,2 
DISL,ioos:station:DISL:MBLA:1,2015-06-02T09:14:00Z,30.4367,-88.0117,0.5,27.76,2 
DISL,ioos:station:DISL:MBLA:1,2015-06-02T10:02:00Z,30.4367,-88.0117,0.5,28.1,2 
DISL,ioos:station:DISL:MBLA:1,2015-06-02T10:05:00Z,30.4367,-88.0117,0.5,28.01,2 
DISL,ioos:station:DISL:MBLA:1,2015-06-02T10:07:00Z,30.4367,-88.0117,0.5,27.91,2 
DISL,ioos:station:DISL:MBLA:1,2015-06-02T10:10:00Z,30.4367,-88.0117,0.5,27.91,2 
DISL,ioos:station:DISL:MBLA:1,2015-06-02T10:12:00Z,30.4367,-88.0117,0.5,27.91,2 
DISL,ioos:station:DISL:MBLA:1,2015-06-02T10:15:00Z,30.4367,-88.0117,0.5,27.82,2 
DISL,ioos:station:DISL:MBLA:1,2015-06-02T11:02:00Z,30.4367,-88.0117,0.5,28.15,2 
DISL,ioos:station:DISL:MBLA:1,2015-06-02T11:05:00Z,30.4367,-88.0117,0.5,28.13,2 
DISL,ioos:station:DISL:MBLA:1,2015-06-02T11:07:00Z,30.4367,-88.0117,0.5,28.15,2 
DISL,ioos:station:DISL:MBLA:1,2015-06-02T11:10:00Z,30.4367,-88.0117,0.5,28.14,2 
DISL,ioos:station:DISL:MBLA:1,2015-06-02T11:12:00Z,30.4367,-88.0117,0.5,28.14,2 
DISL,ioos:station:DISL:MBLA:1,2015-06-02T11:14:00Z,30.4367,-88.0117,0.5,28.09,2 
DISL,ioos:station:DISL:MBLA:1,2015-06-02T12:02:00Z,30.4367,-88.0117,0.5,27.89,2 
DISL,ioos:station:DISL:MBLA:1,2015-06-02T12:05:00Z,30.4367,-88.0117,0.5,27.72,2 
DISL,ioos:station:DISL:MBLA:1,2015-06-02T12:07:00Z,30.4367,-88.0117,0.5,27.71,2 
DISL,ioos:station:DISL:MBLA:1,2015-06-02T12:10:00Z,30.4367,-88.0117,0.5,27.7,2 
DISL,ioos:station:DISL:MBLA:1,2015-06-02T12:12:00Z,30.4367,-88.0117,0.5,27.69,2 
DISL,ioos:station:DISL:MBLA:1,2015-06-02T12:14:00Z,30.4367,-88.0117,0.5,27.68,2 
DISL,ioos:station:DISL:MBLA:1,2015-06-02T13:02:00Z,30.4367,-88.0117,0.5,27.83,2 
DISL,ioos:station:DISL:MBLA:1,2015-06-02T13:05:00Z,30.4367,-88.0117,0.5,27.78,2 
DISL,ioos:station:DISL:MBLA:1,2015-06-02T13:08:00Z,30.4367,-88.0117,0.5,27.69,2 
DISL,ioos:station:DISL:MBLA:1,2015-06-02T13:10:00Z,30.4367,-88.0117,0.5,27.68,2 
DISL,ioos:station:DISL:MBLA:1,2015-06-02T13:12:00Z,30.4367,-88.0117,0.5,27.68,2 
DISL,ioos:station:DISL:MBLA:1,2015-06-02T13:15:00Z,30.4367,-88.0117,0.5,27.68,2 
DISL,ioos:station:DISL:MBLA:1,2015-06-02T14:02:00Z,30.4367,-88.0117,0.5,27.7,2 
DISL,ioos:station:DISL:MBLA:1,2015-06-02T14:05:00Z,30.4367,-88.0117,0.5,27.81,2 
DISL,ioos:station:DISL:MBLA:1,2015-06-02T14:08:00Z,30.4367,-88.0117,0.5,27.76,2 
DISL,ioos:station:DISL:MBLA:1,2015-06-02T14:10:00Z,30.4367,-88.0117,0.5,27.73,2 
DISL,ioos:station:DISL:MBLA:1,2015-06-02T14:13:00Z,30.4367,-88.0117,0.5,27.7,2 
DISL,ioos:station:DISL:MBLA:1,2015-06-02T14:15:00Z,30.4367,-88.0117,0.5,27.69,2 
DISL,ioos:station:DISL:MBLA:1,2015-06-02T15:03:00Z,30.4367,-88.0117,0.5,27.91,2 
DISL,ioos:station:DISL:MBLA:1,2015-06-02T15:05:00Z,30.4367,-88.0117,0.5,27.87,2 
DISL,ioos:station:DISL:MBLA:1,2015-06-02T15:08:00Z,30.4367,-88.0117,0.5,27.83,2 
DISL,ioos:station:DISL:MBLA:1,2015-06-02T15:10:00Z,30.4367,-88.0117,0.5,27.79,2 
DISL,ioos:station:DISL:MBLA:1,2015-06-02T15:12:00Z,30.4367,-88.0117,0.5,27.78,2 
DISL,ioos:station:DISL:MBLA:1,2015-06-02T15:15:00Z,30.4367,-88.0117,0.5,27.79,2 
DISL,ioos:station:DISL:MBLA:1,2015-06-02T16:03:00Z,30.4367,-88.0117,0.5,27.86,2 
DISL,ioos:station:DISL:MBLA:1,2015-06-02T16:05:00Z,30.4367,-88.0117,0.5,27.89,2 
DISL,ioos:station:DISL:MBLA:1,2015-06-02T16:08:00Z,30.4367,-88.0117,0.5,27.88,2 
DISL,ioos:station:DISL:MBLA:1,2015-06-02T16:10:00Z,30.4367,-88.0117,0.5,27.87,2 
DISL,ioos:station:DISL:MBLA:1,2015-06-02T16:13:00Z,30.4367,-88.0117,0.5,27.87,2 
DISL,ioos:station:DISL:MBLA:1,2015-06-02T16:15:00Z,30.4367,-88.0117,0.5,27.87,2 
DISL,ioos:station:DISL:MBLA:1,2015-06-02T17:03:00Z,30.4367,-88.0117,0.5,27.85,2 
DISL,ioos:station:DISL:MBLA:1,2015-06-02T17:08:00Z,30.4367,-88.0117,0.5,27.89,2 
DISL,ioos:station:DISL:MBLA:1,2015-06-02T17:10:00Z,30.4367,-88.0117,0.5,27.93,2 
DISL,ioos:station:DISL:MBLA:1,2015-06-02T17:13:00Z,30.4367,-88.0117,0.5,27.96,2 
DISL,ioos:station:DISL:MBLA:1,2015-06-02T17:15:00Z,30.4367,-88.0117,0.5,27.97,2 
DISL,ioos:station:DISL:MBLA:1,2015-06-02T18:02:00Z,30.4367,-88.0117,0.5,27.8,2 
DISL,ioos:station:DISL:MBLA:1,2015-06-02T18:05:00Z,30.4367,-88.0117,0.5,27.91,2 
DISL,ioos:station:DISL:MBLA:1,2015-06-02T18:08:00Z,30.4367,-88.0117,0.5,27.94,2 
DISL,ioos:station:DISL:MBLA:1,2015-06-02T18:10:00Z,30.4367,-88.0117,0.5,28.14,2 
DISL,ioos:station:DISL:MBLA:1,2015-06-02T18:13:00Z,30.4367,-88.0117,0.5,28.26,2 
DISL,ioos:station:DISL:MBLA:1,2015-06-02T18:16:00Z,30.4367,-88.0117,0.5,28.29,2 
DISL,ioos:station:DISL:MBLA:1,2015-06-02T19:02:00Z,30.4367,-88.0117,0.5,27.91,2 
DISL,ioos:station:DISL:MBLA:1,2015-06-02T19:05:00Z,30.4367,-88.0117,0.5,27.97,2 
DISL,ioos:station:DISL:MBLA:1,2015-06-02T19:08:00Z,30.4367,-88.0117,0.5,28.1,2 
DISL,ioos:station:DISL:MBLA:1,2015-06-02T19:10:00Z,30.4367,-88.0117,0.5,28.21,2 
DISL,ioos:station:DISL:MBLA:1,2015-06-02T19:12:00Z,30.4367,-88.0117,0.5,28.39,2 
DISL,ioos:station:DISL:MBLA:1,2015-06-02T19:15:00Z,30.4367,-88.0117,0.5,28.47,2 
DISL,ioos:station:DISL:MBLA:1,2015-06-02T20:02:00Z,30.4367,-88.0117,0.5,27.95,2 
DISL,ioos:station:DISL:MBLA:1,2015-06-02T20:05:00Z,30.4367,-88.0117,0.5,27.96,2 
DISL,ioos:station:DISL:MBLA:1,2015-06-02T20:08:00Z,30.4367,-88.0117,0.5,28.05,2 
DISL,ioos:station:DISL:MBLA:1,2015-06-02T20:10:00Z,30.4367,-88.0117,0.5,28.06,2 
DISL,ioos:station:DISL:MBLA:1,2015-06-02T20:13:00Z,30.4367,-88.0117,0.5,28.44,2 
DISL,ioos:station:DISL:MBLA:1,2015-06-02T20:16:00Z,30.4367,-88.0117,0.5,28.45,2 
DISL,ioos:station:DISL:MBLA:1,2015-06-02T21:02:00Z,30.4367,-88.0117,0.5,28.29,2 
DISL,ioos:station:DISL:MBLA:1,2015-06-02T21:05:00Z,30.4367,-88.0117,0.5,28.41,2 
DISL,ioos:station:DISL:MBLA:1,2015-06-02T21:08:00Z,30.4367,-88.0117,0.5,28.29,2 
DISL,ioos:station:DISL:MBLA:1,2015-06-02T21:10:00Z,30.4367,-88.0117,0.5,28.31,2 
DISL,ioos:station:DISL:MBLA:1,2015-06-02T21:13:00Z,30.4367,-88.0117,0.5,28.46,2 
DISL,ioos:station:DISL:MBLA:1,2015-06-02T21:15:00Z,30.4367,-88.0117,0.5,28.7,2 
DISL,ioos:station:DISL:MBLA:1,2015-06-02T22:02:00Z,30.4367,-88.0117,0.5,28.1,2 
DISL,ioos:station:DISL:MBLA:1,2015-06-02T22:05:00Z,30.4367,-88.0117,0.5,28.15,2 
DISL,ioos:station:DISL:MBLA:1,2015-06-02T22:07:00Z,30.4367,-88.0117,0.5,28.14,2 
DISL,ioos:station:DISL:MBLA:1,2015-06-02T22:10:00Z,30.4367,-88.0117,0.5,28.16,2 
DISL,ioos:station:DISL:MBLA:1,2015-06-02T22:13:00Z,30.4367,-88.0117,0.5,28.35,2 
DISL,ioos:station:DISL:MBLA:1,2015-06-02T22:15:00Z,30.4367,-88.0117,0.5,28.54,2 
DISL,ioos:station:DISL:MBLA:1,2015-06-02T23:02:00Z,30.4367,-88.0117,0.5,27.99,2 
DISL,ioos:station:DISL:MBLA:1,2015-06-02T23:05:00Z,30.4367,-88.0117,0.5,28.04,2 
DISL,ioos:station:DISL:MBLA:1,2015-06-02T23:07:00Z,30.4367,-88.0117,0.5,28.01,2 
DISL,ioos:station:DISL:MBLA:1,2015-06-02T23:10:00Z,30.4367,-88.0117,0.5,28.0,2 
DISL,ioos:station:DISL:MBLA:1,2015-06-02T23:13:00Z,30.4367,-88.0117,0.5,28.12,2 
DISL,ioos:station:DISL:MBLA:1,2015-06-02T23:15:00Z,30.4367,-88.0117,0.5,28.23,2 
DISL,ioos:station:DISL:MBLA:1,2015-06-03T00:02:00Z,30.4367,-88.0117,0.5,27.79,2 
DISL,ioos:station:DISL:MBLA:1,2015-06-03T00:05:00Z,30.4367,-88.0117,0.5,27.53,2 
DISL,ioos:station:DISL:MBLA:1,2015-06-03T00:07:00Z,30.4367,-88.0117,0.5,27.59,2 
DISL,ioos:station:DISL:MBLA:1,2015-06-03T00:10:00Z,30.4367,-88.0117,0.5,27.82,2 
DISL,ioos:station:DISL:MBLA:1,2015-06-03T00:13:00Z,30.4367,-88.0117,0.5,27.99,2 
DISL,ioos:station:DISL:MBLA:1,2015-06-03T00:15:00Z,30.4367,-88.0117,0.5,28.07,2 
DISL,ioos:station:DISL:MBLA:1,2015-06-03T01:02:00Z,30.4367,-88.0117,0.5,27.61,2 
DISL,ioos:station:DISL:MBLA:1,2015-06-03T01:05:00Z,30.4367,-88.0117,0.5,27.46,2 
DISL,ioos:station:DISL:MBLA:1,2015-06-03T01:07:00Z,30.4367,-88.0117,0.5,27.77,2 
DISL,ioos:station:DISL:MBLA:1,2015-06-03T01:10:00Z,30.4367,-88.0117,0.5,27.81,2 
DISL,ioos:station:DISL:MBLA:1,2015-06-03T01:12:00Z,30.4367,-88.0117,0.5,27.83,2 
DISL,ioos:station:DISL:MBLA:1,2015-06-03T01:15:00Z,30.4367,-88.0117,0.5,27.83,2 
DISL,ioos:station:DISL:MBLA:1,2015-06-03T02:02:00Z,30.4367,-88.0117,0.5,27.81,2 
DISL,ioos:station:DISL:MBLA:1,2015-06-03T02:05:00Z,30.4367,-88.0117,0.5,27.8,2 
DISL,ioos:station:DISL:MBLA:1,2015-06-03T02:07:00Z,30.4367,-88.0117,0.5,27.77,2 
DISL,ioos:station:DISL:MBLA:1,2015-06-03T02:10:00Z,30.4367,-88.0117,0.5,27.81,2 
DISL,ioos:station:DISL:MBLA:1,2015-06-03T02:12:00Z,30.4367,-88.0117,0.5,27.8,2 
DISL,ioos:station:DISL:MBLA:1,2015-06-03T02:15:00Z,30.4367,-88.0117,0.5,27.8,2 
DISL,ioos:station:DISL:MBLA:1,2015-06-03T03:02:00Z,30.4367,-88.0117,0.5,27.74,2 
DISL,ioos:station:DISL:MBLA:1,2015-06-03T03:07:00Z,30.4367,-88.0117,0.5,27.82,2 